• In Hungary
  • List of Countries
  • For 7 days
  • Water Temperature
  • Satellite Maps
  • Weather Map
  • News
  • Weather Widgets
  • user-avatar
    Login

    Hourly Weather Nova Kakhovka

    Today, 26 September, Wednesday

    Time Temperature Precipitation Wind Pressure Humidity
    00:00 +8°C° 0 mm 5 mps 767 mmHg 66%
    01:00 +8°C° 0 mm 5 mps 767 mmHg 68%
    02:00 +7°C° 0 mm 5 mps 768 mmHg 69%
    03:00 +7°C° 0 mm 5 mps 768 mmHg 71%
    04:00 +7°C° 0 mm 5 mps 768 mmHg 72%
    05:00 +6°C° 0 mm 4 mps 769 mmHg 74%
    06:00 +7°C° 0 mm 5 mps 769 mmHg 69%
    07:00 +8°C° 0 mm 5 mps 770 mmHg 65%
    08:00 +9°C° 0 mm 5 mps 770 mmHg 60%
    09:00 +10°C° 0 mm 5 mps 770 mmHg 54%
    10:00 +13°C° 0 mm 5 mps 770 mmHg 47%
    11:00 +14°C° 0 mm 5 mps 771 mmHg 40%
    12:00 +14°C° 0 mm 5 mps 771 mmHg 38%
    13:00 +15°C° 0 mm 5 mps 771 mmHg 36%
    14:00 +15°C° 0 mm 5 mps 770 mmHg 34%
    15:00 +15°C° 0 mm 5 mps 771 mmHg 34%
    16:00 +14°C° 0 mm 5 mps 771 mmHg 35%
    17:00 +13°C° 0 mm 5 mps 771 mmHg 36%
    18:00 +12°C° 0 mm 4 mps 771 mmHg 38%
    19:00 +11°C° 0 mm 4 mps 771 mmHg 40%
    20:00 +10°C° 0 mm 4 mps 772 mmHg 43%
    21:00 +10°C° 0 mm 4 mps 772 mmHg 45%
    22:00 +8°C° 0 mm 4 mps 772 mmHg 47%
    23:00 +9°C° 0 mm 3 mps 772 mmHg 49%

    Tomorrow, 27 September, Thursday

    Time Temperature Precipitation Wind Pressure Humidity
    00:00 +8°C° 0 mm 3 mps 772 mmHg 52%
    01:00 +8°C° 0 mm 3 mps 772 mmHg 54%
    02:00 +7°C° 0 mm 3 mps 772 mmHg 57%
    03:00 +7°C° 0 mm 2 mps 771 mmHg 58%
    04:00 +7°C° 0 mm 2 mps 771 mmHg 60%
    05:00 +6°C° 0 mm 2 mps 771 mmHg 61%
    06:00 +8°C° 0 mm 2 mps 771 mmHg 56%
    07:00 +9°C° 0 mm 2 mps 771 mmHg 52%
    08:00 +10°C° 0 mm 2 mps 771 mmHg 47%
    09:00 +13°C° 0 mm 2 mps 771 mmHg 41%
    10:00 +14°C° 0 mm 2 mps 771 mmHg 35%
    11:00 +14°C° 0 mm 3 mps 770 mmHg 30%
    12:00 +16°C° 0 mm 3 mps 770 mmHg 28%
    13:00 +17°C° 0 mm 4 mps 769 mmHg 27%
    14:00 +18°C° 0 mm 4 mps 769 mmHg 26%
    15:00 +17°C° 0 mm 4 mps 768 mmHg 28%
    16:00 +17°C° 0 mm 4 mps 768 mmHg 31%
    17:00 +15°C° 0 mm 4 mps 768 mmHg 34%
    18:00 +14°C° 0 mm 4 mps 768 mmHg 38%
    19:00 +13°C° 0 mm 3 mps 768 mmHg 42%
    20:00 +12°C° 0 mm 3 mps 768 mmHg 45%
    21:00 +12°C° 0 mm 3 mps 768 mmHg 47%
    22:00 +12°C° 0 mm 3 mps 768 mmHg 48%
    23:00 +11°C° 0 mm 3 mps 768 mmHg 50%

    Day after tomorrow, 28 September, Friday

    Time Temperature Precipitation Wind Pressure Humidity
    00:00 +12°C° 0 mm 3 mps 767 mmHg 49%
    01:00 +13°C° 0 mm 2 mps 767 mmHg 48%
    02:00 +13°C° 0 mm 2 mps 767 mmHg 47%
    03:00 +13°C° 0 mm 2 mps 766 mmHg 47%
    04:00 +12°C° 0 mm 2 mps 766 mmHg 47%
    05:00 +12°C° 0 mm 1 mps 765 mmHg 48%
    06:00 +13°C° 0 mm 1 mps 765 mmHg 45%
    07:00 +15°C° 0 mm 1 mps 765 mmHg 42%
    08:00 +16°C° 0 mm 1 mps 765 mmHg 39%
    09:00 +17°C° 0 mm 2 mps 765 mmHg 38%
    10:00 +19°C° 0 mm 3 mps 765 mmHg 37%
    11:00 +20°C° 0 mm 3 mps 765 mmHg 37%
    12:00 +21°C° 0 mm 4 mps 764 mmHg 37%
    13:00 +22°C° 0 mm 4 mps 763 mmHg 38%
    14:00 +22°C° 0 mm 4 mps 763 mmHg 38%
    15:00 +21°C° 0 mm 4 mps 762 mmHg 42%
    16:00 +21°C° 0 mm 4 mps 762 mmHg 45%
    17:00 +20°C° 0 mm 3 mps 762 mmHg 49%
    18:00 +19°C° 0 mm 3 mps 762 mmHg 53%
    19:00 +17°C° 0 mm 3 mps 762 mmHg 58%
    20:00 +16°C° 0 mm 2 mps 762 mmHg 63%
    21:00 +16°C° 0 mm 2 mps 762 mmHg 65%
    22:00 +15°C° 0 mm 2 mps 762 mmHg 67%
    23:00 +15°C° 0 mm 2 mps 762 mmHg 69%

    29 September, Saturday

    Time Temperature Precipitation Wind Pressure Humidity
    00:00 +15°C° 0 mm 2 mps 762 mmHg 70%
    01:00 +14°C° 0 mm 1 mps 762 mmHg 72%
    02:00 +14°C° 0 mm 1 mps 761 mmHg 73%
    03:00 +14°C° 0 mm 1 mps 761 mmHg 75%
    04:00 +14°C° 0 mm 1 mps 761 mmHg 76%
    05:00 +13°C° 0 mm 0 mps 761 mmHg 78%
    06:00 +14°C° 0 mm 0 mps 761 mmHg 72%
    07:00 +16°C° 0 mm 1 mps 761 mmHg 66%
    08:00 +19°C° 0 mm 1 mps 761 mmHg 61%
    09:00 +20°C° 0 mm 1 mps 761 mmHg 56%
    10:00 +22°C° 0 mm 1 mps 761 mmHg 52%
    11:00 +23°C° 0 mm 1 mps 761 mmHg 47%
    12:00 +24°C° 0 mm 1 mps 761 mmHg 45%
    13:00 +22°C° 0 mm 0 mps 760 mmHg 43%
    14:00 +23°C° 0 mm 0 mps 760 mmHg 42%
    15:00 +24°C° 0 mm 1 mps 760 mmHg 43%
    16:00 +24°C° 0 mm 1 mps 760 mmHg 45%
    17:00 +23°C° 0 mm 1 mps 760 mmHg 47%
    18:00 +22°C° 0 mm 1 mps 760 mmHg 49%
    19:00 +20°C° 0 mm 2 mps 761 mmHg 52%
    20:00 +20°C° 0 mm 2 mps 761 mmHg 54%
    21:00 +19°C° 0 mm 2 mps 761 mmHg 55%
    22:00 +20°C° 0 mm 1 mps 761 mmHg 55%
    23:00 +20°C° 0 mm 1 mps 761 mmHg 56%

    30 September, Sunday

    Time Temperature Precipitation Wind Pressure Humidity
    00:00 +19°C° 0 mm 1 mps 761 mmHg 58%
    01:00 +18°C° 0 mm 2 mps 761 mmHg 60%
    02:00 +18°C° 0 mm 2 mps 761 mmHg 62%
    03:00 +17°C° 0 mm 2 mps 762 mmHg 65%
    04:00 +17°C° 0 mm 3 mps 762 mmHg 68%
    05:00 +16°C° 0 mm 3 mps 762 mmHg 71%
    06:00 +17°C° 0 mm 4 mps 762 mmHg 70%
    07:00 +18°C° 0 mm 4 mps 762 mmHg 68%
    08:00 +19°C° 0 mm 4 mps 763 mmHg 67%
    09:00 +20°C° 0 mm 4 mps 763 mmHg 61%
    10:00 +22°C° 0 mm 4 mps 763 mmHg 55%
    11:00 +23°C° 0 mm 4 mps 763 mmHg 49%
    12:00 +25°C° 0 mm 4 mps 763 mmHg 48%
    13:00 +25°C° 0 mm 4 mps 762 mmHg 47%
    14:00 +25°C° 0 mm 4 mps 762 mmHg 46%
    15:00 +23°C° 0 mm 4 mps 762 mmHg 48%
    16:00 +23°C° 0 mm 4 mps 762 mmHg 50%
    17:00 +22°C° 0 mm 4 mps 762 mmHg 51%
    18:00 +21°C° 0 mm 4 mps 763 mmHg 54%
    19:00 +20°C° 0 mm 5 mps 763 mmHg 57%
    20:00 +19°C° 0 mm 5 mps 763 mmHg 60%
    21:00 +17°C° 0 mm 5 mps 763 mmHg 62%
    22:00 +16°C° 0 mm 5 mps 763 mmHg 65%
    23:00 +16°C° 0 mm 5 mps 763 mmHg 67%

    1 October, Monday

    Time Temperature Precipitation Wind Pressure Humidity
    00:00 +15°C° 0 mm 5 mps 763 mmHg 68%
    01:00 +15°C° 0 mm 5 mps 762 mmHg 70%
    02:00 +15°C° 0 mm 5 mps 762 mmHg 71%
    03:00 +14°C° 0 mm 5 mps 762 mmHg 71%
    04:00 +14°C° 0 mm 5 mps 762 mmHg 71%
    05:00 +14°C° 0 mm 5 mps 762 mmHg 71%
    06:00 +15°C° 0 mm 5 mps 762 mmHg 68%
    07:00 +16°C° 0 mm 5 mps 762 mmHg 64%
    08:00 +16°C° 0 mm 6 mps 762 mmHg 60%
    09:00 +19°C° 0 mm 6 mps 761 mmHg 56%
    10:00 +21°C° 0 mm 6 mps 761 mmHg 51%
    11:00 +23°C° 0 mm 6 mps 761 mmHg 47%
    12:00 +25°C° 0 mm 5 mps 760 mmHg 45%
    13:00 +25°C° 0 mm 5 mps 760 mmHg 43%
    14:00 +26°C° 0 mm 5 mps 759 mmHg 41%
    15:00 +25°C° 0 mm 5 mps 759 mmHg 43%
    16:00 +23°C° 0 mm 4 mps 759 mmHg 45%
    17:00 +23°C° 0 mm 4 mps 758 mmHg 48%
    18:00 +21°C° 0 mm 4 mps 758 mmHg 51%
    19:00 +20°C° 0 mm 4 mps 758 mmHg 54%
    20:00 +19°C° 0 mm 4 mps 758 mmHg 57%
    21:00 +19°C° 0 mm 4 mps 758 mmHg 58%
    22:00 +18°C° 0 mm 4 mps 757 mmHg 59%
    23:00 +18°C° 0 mm 4 mps 757 mmHg 60%
    Show more